Weather Roundup
Issued by NWS Chicago, IL

Home | Current Version | Previous Version | Graphics & Text | Print | Product List | Glossary On
Versions: 1 2 3 4 5 6 7 8 9 10 11 12 13 14 15 16 17 18 19 20 21 22 23 24 25 26 27 28 29 30 31 32 33 34 35 36 37 38 39 40 41 42 43 44 45 46 47 48 49 50
000
NZUS59 KLOT 230458
HRRLOT

CHICAGO AREA WEATHER ROUNDUP
NATIONAL WEATHER SERVICE CHICAGO/ROMEOVILLE IL
1200 AM CDT WED JUL 23 2014

NOTE: "FAIR" INDICATES FEW OR NO CLOUDS BELOW 12,000 FEET WITH NO
SIGNIFICANT WEATHER AND/OR OBSTRUCTIONS TO VISIBILITY.

* THESE STATIONS ARE NOT UNDER NWS QUALITY CONTROL. THEY ALSO MAY NOT
  REPORT WEATHER SUCH AS PRECIPITATION OR FOG.

ILZ005-006-012>014-019>023-230600-
NORTHEAST ILLINOIS

CITY           SKY/WX    TMP DP  RH WIND       PRES   REMARKS
OHARE          CLOUDY    78  68  71 NE18G29   29.99R THUNDER HX  80
MIDWAY         TSTM      78  74  87 NE21G28   29.98R FOG     HX  81
AURORA         CLOUDY    78  74  87 N5        29.99R FOG     HX  81
WAUKEGAN       CLOUDY    74  64  71 N14G30    30.00R
DUPAGE AIRPORT CLOUDY    79  74  84 N9        29.99R HAZE    HX  82
WHEELING       CLOUDY    78  66  66 NE20G32   30.03R HX  80
NORTHERLY IS     N/A     72  69  90 N15         N/A
$$

WIZ051-052-058>065-066-070>072-230600-
SOUTHEAST WISCONSIN

CITY           SKY/WX    TMP DP  RH WIND       PRES   REMARKS
MILWAUKEE      CLOUDY    66  59  78 NE15G24   30.04R
KENOSHA*       CLOUDY    74  64  71 NE17G30   30.03R
RACINE*        MOCLDY    69  63  81 NE17G24   30.05R
$$

INZ001>003-010>013-019-020-230600-
NORTHWEST INDIANA

CITY           SKY/WX    TMP DP  RH WIND       PRES   REMARKS
GARY*          NOT AVBL
MICHIGAN CITY* NOT AVBL
RENSSELAER*    NOT AVBL
VALPARAISO     PTCLDY    76  71  85 SW8       29.99R
$$

LMZ740>746-230600-
SOUTHERN LAKE MICHIGAN

STATION/POSITION TIME  SKY/WX   TEMP WIND        PRES    VSBY
                                AIR  DIR/SP/G
                 (UTC)          (F)  (DEG/KT/KT) (MB)    (MI)
HARRISON CRIB    0400            82  230/ 16/ 20   N/A
BURNHAM HARBOR   0400            79   10/ 14       N/A
CALUMET HARBOR   0400            81  210/  7/  8 1013.0R
BURNS HARBOR     0400            80  210/ 12/ 15 1014.9S
MICHIGAN CITY    0400            79  180/  9/ 12   N/A
$$

ABBREVIATIONS USED IN REMARKS
   TC - TEMPERATURE IN CELSIUS
  WCI - WIND CHILL INDEX
   HX - HEAT INDEX
  VSB - VISIBILITY
$$


USA.gov is the U.S. government's official web portal to all federal, state and local government web resources and services.